Temp
75 76 79 78 78 59 68 70 63 65 68 69 56 54 57 56 50 53 50 57 60 65 70 75 74 74 76 80 79 81 81 83 82 82 83 83 83 84 83 83 83 82 83 84 84 84 84 84 84 83 82 82 81 81 80 79 80 80 80 80 80 80 80
78 80 80 81 81 72 68 63 67 72 76 71 62 45 50 49 43 46 56 59 53 59 53 68 74 72 75 76 78 80 80 81 80 82 83 83 83 83 84 84 83 83 84 84 85 85 85 85 85 84 83 83 82 82 81 80 80 79 80 80 80 80 79
76 81 78 74 81 81 75 71 77 71 54 58 55 52 46 44 44 41 49 57 54 55 58 61 71 73 75 74 75 78 78 80 80 82 83 83 84 84 83 83 83 83 83 84 84 85 86 86 85 85 84 84 83 83 83 82 81 81 81 82 81 81 81
75 77 74 61 69 79 79 78 75 73 64 61 53 56 47 53 41 49 45 53 50 59 62 70 71 73 77 78 73 77 79 80 81 82 83 83 83 83 83 83 83 83 84 85 85 86 86 85 85 86 85 85 84 84 83 82 83 82 81 81 81 80 81
72 64 70 66 69 67 67 70 68 71 67 66 65 62 58 48 42 42 44 45 51 62 74 76 75 76 77 80 76 76 80 82 83 83 84 83 83 83 84 84 84 84 84 85 86 86 87 87 86 87 86 85 85 85 83 83 82 81 81 82 82 81 81
57 66 75 76 74 74 70 68 66 70 66 56 58 51 65 59 51 39 44 48 50 68 82 80 79 81 82 81 82 76 81 82 83 84 84 84 84 84 84 85 85 85 84 85 86 86 86 86 86 86 87 86 85 84 84 84 83 83 82 82 81 81 81
58 67 75 80 80 79 75 72 68 74 70 61 58 46 52 61 58 57 52 48 53 63 72 80 81 82 84 84 83 79 81 83 84 85 86 85 85 85 85 85 85 85 85 85 85 85 84 85 85 86 86 86 85 85 85 84 83 83 83 83 83 82 81
64 71 76 75 80 79 74 72 71 72 69 69 65 58 51 58 55 55 52 49 56 68 67 75 82 82 84 85 84 80 82 84 85 85 85 85 84 85 86 87 86 85 85 85 84 83 83 83 83 85 86 86 86 86 85 84 83 83 84 84 83 82 81
51 60 64 68 75 77 72 71 72 73 75 73 65 64 55 59 58 56 50 46 59 59 68 71 73 78 82 83 82 83 82 84 85 85 85 85 84 84 85 85 84 84 84 82 82 83 82 83 84 84 85 86 86 86 86 85 84 85 84 84 84 83 82
39 41 42 44 55 67 72 74 73 73 73 70 64 60 54 48 52 56 51 51 59 62 70 71 73 75 79 82 79 83 85 84 85 85 85 84 83 82 83 84 83 83 82 82 81 81 82 83 84 84 85 86 87 87 86 86 85 85 85 85 84 83 82
42 45 48 57 62 61 66 70 72 71 73 74 71 57 49 52 45 56 53 61 58 62 70 67 71 74 77 74 74 78 81 84 85 84 84 84 83 83 84 83 84 82 80 80 81 81 83 84 85 85 85 86 87 86 86 87 87 86 85 85 84 83 83
51 55 55 61 64 61 65 70 70 72 71 70 69 62 59 51 54 47 53 54 62 63 64 66 65 69 69 72 74 76 81 83 84 84 83 84 84 84 84 84 82 80 80 80 80 81 82 84 84 85 86 87 87 86 86 87 87 86 86 85 84 83 82
53 56 57 61 65 66 66 71 72 70 72 69 67 65 63 58 57 53 57 54 59 63 69 67 67 67 70 74 76 78 82 84 84 83 83 83 84 84 84 83 82 81 80 79 80 81 82 83 84 84 86 86 87 87 88 87 88 87 86 85 84 83 82
50 54 59 65 64 65 66 70 72 73 72 70 70 68 65 66 58 61 63 55 62 66 66 69 71 72 72 73 73 74 78 82 82 83 83 84 84 84 84 83 83 81 81 81 80 81 81 83 83 84 85 85 87 87 87 88 87 88 87 85 83 83 83
47 56 60 63 65 65 62 66 72 73 73 73 71 70 68 65 64 62 61 58 62 66 68 69 70 71 73 74 74 75 77 81 83 83 83 84 84 84 84 83 83 82 81 81 81 80 81 82 83 84 85 86 87 88 88 89 88 88 87 85 84 83 83
43 55 53 58 64 63 61 59 62 66 67 68 70 65 68 64 59 58 62 58 60 68 70 73 72 72 72 71 71 73 73 79 82 83 83 84 83 84 84 83 83 82 81 80 80 81 83 84 84 85 85 86 87 88 89 89 89 89 88 86 84 83 84
41 52 53 55 59 55 52 51 55 61 63 63 63 59 60 60 64 63 55 57 66 66 70 71 69 71 70 70 70 71 72 72 77 81 83 83 83 84 83 82 82 83 83 82 82 83 84 85 85 86 86 87 86 88 88 89 90 89 88 87 85 84 84
41 49 50 53 48 41 42 57 62 64 58 57 55 55 57 60 62 59 64 68 65 67 69 69 68 69 70 71 72 73 72 73 74 75 75 77 78 78 79 79 80 78 78 79 81 83 84 85 88 88 88 88 88 89 90 89 89 89 88 87 86 84 84
40 47 47 46 41 43 56 64 63 63 65 62 58 57 59 59 61 63 64 66 68 67 71 71 71 72 73 75 75 76 77 76 75 74 75 75 76 76 77 77 77 76 77 77 78 80 82 85 84 85 87 88 88 89 89 89 88 87 87 87 85 84 83
44 40 38 38 39 52 59 60 62 62 63 61 61 57 58 60 60 61 60 63 67 68 70 71 72 72 74 75 75 76 78 78 77 76 76 77 77 76 76 76 76 77 79 80 81 79 80 82 83 84 85 88 89 90 91 89 88 87 86 86 86 84 84
37 40 37 39 51 53 54 52 54 56 52 54 53 49 53 60 61 61 60 62 65 70 72 72 72 73 73 70 70 76 76 77 79 79 78 78 78 78 78 78 77 77 78 79 80 80 80 82 82 82 84 87 89 90 89 90 87 87 86 85 85 84 84
43 37 35 35 38 36 44 50 57 60 62 62 61 58 53 60 62 64 61 61 65 66 68 68 68 72 67 61 64 72 75 77 77 78 79 80 80 79 79 78 79 78 79 80 80 80 79 79 80 80 82 81 79 80 82 84 85 85 85 85 86 84 84
43 38 35 34 33 39 47 49 54 58 61 61 62 59 49 59 61 64 62 61 63 65 65 66 67 65 58 58 63 70 73 74 76 76 77 78 79 79 79 78 77 78 77 78 79 79 78 78 78 79 79 78 79 77 77 77 79 81 82 85 85 84 84
40 40 36 32 36 34 45 50 53 58 61 63 59 47 45 55 60 64 63 61 61 63 65 66 64 61 57 59 63 71 73 74 74 74 74 75 76 77 78 79 78 77 77 77 77 77 77 76 77 78 78 77 78 77 76 76 78 78 80 82 83 85 86
41 43 40 41 38 48 51 51 54 58 63 62 47 39 47 56 59 64 64 62 62 63 63 65 61 63 65 66 69 72 73 72 72 74 75 75 76 76 77 77 78 77 77 76 76 76 75 76 77 77 77 77 76 76 76 74 75 77 78 79 81 82 81
39 41 40 39 41 46 51 53 56 61 57 42 41 52 59 57 57 63 64 63 63 64 63 63 64 66 69 70 70 70 71 70 70 71 72 73 74 77 77 78 77 76 76 75 76 76 75 77 77 76 76 75 75 75 73 74 76 79 78 77 78 80 81
43 42 39 36 31 43 53 52 55 58 47 47 55 57 58 58 57 60 62 63 63 64 62 64 64 65 66 67 67 68 69 69 69 69 69 70 71 72 73 74 76 77 74 73 74 74 75 76 77 76 76 75 76 75 74 75 77 77 78 78 76 79 80
36 37 35 35 44 48 53 51 43 50 54 56 59 58 53 56 56 57 59 62 63 63 62 62 63 64 64 64 66 66 67 68 69 69 69 70 70 72 73 75 74 75 73 72 72 73 74 75 75 75 74 74 76 75 74 76 76 77 78 77 75 77 79
41 39 45 51 53 52 55 55 54 55 60 61 59 60 58 56 55 57 57 58 63 63 62 62 62 62 63 63 65 64 65 66 66 67 67 68 69 70 70 71 73 74 72 71 72 73 73 73 74 74 74 73 74 74 75 76 76 77 77 77 76 76 77
52 54 54 55 54 56 55 58 57 57 57 62 61 58 56 58 58 57 55 57 60 63 62 61 61 61 62 63 63 64 65 65 66 67 67 68 69 70 71 71 71 72 72 72 71 71 72 73 73 74 74 73 73 74 75 76 76 76 76 77 77 75 76
44 38 52 49 50 55 58 58 56 58 57 57 60 58 59 58 58 61 58 57 58 60 61 59 58 60 61 62 62 63 64 64 65 66 66 66 67 68 68 70 71 70 70 70 70 71 71 72 72 73 73 73 74 74 76 76 76 76 77 78 77 75 75
44 44 48 50 52 56 56 55 51 52 54 57 57 59 61 61 61 62 61 60 59 59 59 58 58 59 60 60 60 62 62 63 64 64 65 66 67 68 69 70 71 68 69 69 69 69 70 71 71 72 72 73 74 74 75 75 75 76 77 77 77 75 75
46 51 51 49 51 53 55 55 56 56 56 55 56 56 59 62 62 62 63 63 61 60 59 59 58 58 59 59 60 61 62 62 63 64 65 66 66 67 68 69 71 68 68 69 69 69 70 70 71 71 72 72 74 74 74 74 74 74 75 77 77 74 76
37 40 43 47 40 41 48 51 54 55 56 56 57 56 56 59 59 60 61 62 62 61 60 58 58 56 57 58 58 60 60 61 62 63 65 65 66 67 68 70 70 70 69 69 69 69 69 71 72 72 72 72 73 75 75 74 73 73 72 74 73 74 73
35 43 46 48 47 46 48 51 54 54 56 56 54 55 55 56 60 61 61 61 61 59 58 58 58 57 56 58 58 59 60 60 62 63 64 65 65 66 68 68 68 70 69 70 70 69 69 71 71 71 71 72 72 74 74 74 73 72 72 73 73 72 73
44 47 47 47 45 43 47 50 51 52 54 54 55 56 57 56 57 59 59 61 60 59 57 57 58 58 58 58 58 58 59 61 61 62 65 66 66 67 68 68 68 69 69 68 69 68 68 69 69 70 71 72 71 74 73 74 75 74 73 73 72 72 73
41 47 47 47 46 47 49 50 51 52 54 55 54 56 58 57 57 58 58 58 60 60 58 57 59 58 58 59 58 59 58 61 62 64 66 66 67 67 67 68 68 68 67 67 67 67 68 68 69 69 70 71 71 72 72 74 75 74 73 73 73 72 72
MSLP
999.97 999.53 999.29 999.97 999.77 1006.49 1003.05 1003.33 1005.41 1003.61 1001.69 1003.09 1005.81 1006.45 1005.17 1005.61 1006.85 1007.89 1004.81 1004.73 1004.05 1000.93 1000.17 999.09 998.85 999.49 999.33 998.93 999.73 999.85 1000.09 1000.13 1000.57 1001.29 1001.49 1001.61 1001.77 1002.05 1002.37 1002.81 1003.13 1003.37 1003.61 1003.81 1003.97 1004.41 1004.81 1005.13 1005.57 1005.93 1006.21 1006.49 1006.93 1007.49 1008.13 1008.77 1009.21 1009.57 1009.89 1010.05 1010.33 1010.65 1011.05
998.93 998.17 998.33 998.77 998.81 999.33 1002.09 1004.65 1002.41 1000.73 999.85 1001.37 1004.61 1008.49 1007.25 1007.41 1009.65 1008.01 1005.05 1006.01 1005.77 1004.93 1006.25 999.61 999.73 1000.01 999.73 999.53 999.81 999.85 999.89 1000.05 1000.97 1000.97 1000.97 1001.09 1001.33 1001.41 1001.45 1001.73 1001.97 1002.37 1002.77 1003.13 1003.41 1003.73 1004.09 1004.41 1004.69 1005.09 1005.45 1005.69 1006.21 1006.73 1007.29 1008.13 1008.77 1009.37 1009.53 1009.85 1010.21 1010.49 1010.97
998.45 997.57 998.85 1000.09 998.33 997.57 999.97 1001.21 998.69 1002.45 1006.45 1006.93 1004.37 1005.61 1009.73 1009.85 1009.93 1008.57 1006.25 1004.97 1004.97 1004.29 1004.09 1001.61 1000.53 1000.25 999.65 999.61 999.53 1000.01 1000.33 1000.45 1000.53 1000.49 1000.41 1000.37 1000.61 1001.13 1001.61 1001.97 1002.33 1002.61 1002.85 1003.01 1003.09 1003.29 1003.45 1003.65 1003.73 1004.09 1004.73 1005.41 1006.05 1006.49 1006.85 1007.33 1008.05 1008.37 1008.77 1009.13 1009.49 1009.89 1010.29
998.17 998.17 999.33 1003.41 1001.09 998.09 997.61 998.09 999.85 998.97 1001.41 1003.81 1006.09 1004.77 1005.57 1006.13 1009.17 1008.77 1007.69 1005.97 1006.41 1002.49 1001.77 1000.37 999.89 998.81 998.33 998.41 999.81 999.81 999.77 999.77 999.89 999.97 999.97 1000.09 1000.37 1000.81 1001.25 1001.53 1001.77 1001.89 1002.05 1002.29 1002.53 1002.81 1003.13 1003.41 1003.81 1004.21 1004.77 1005.29 1005.93 1006.21 1006.65 1007.05 1007.37 1007.85 1008.49 1008.97 1009.25 1009.73 1009.85
998.89 1001.17 999.21 1000.57 999.97 1000.97 1001.05 1000.69 1001.25 1000.81 1001.21 1000.65 1001.41 1002.57 1004.05 1006.05 1007.57 1008.09 1007.89 1008.53 1005.37 1001.37 998.37 998.41 998.49 998.09 997.53 997.17 998.49 999.17 998.93 998.85 998.85 998.97 999.29 999.69 999.97 1000.25 1000.49 1000.81 1001.17 1001.49 1001.77 1002.01 1002.21 1002.21 1002.29 1002.57 1003.17 1003.81 1004.41 1004.93 1005.29 1005.81 1006.41 1006.65 1007.29 1007.81 1008.33 1008.53 1008.85 1009.21 1009.53
1003.41 1000.09 997.29 997.21 998.21 998.49 999.57 1000.25 1001.21 1000.49 1002.17 1004.21 1005.61 1006.61 1002.45 1003.09 1005.21 1007.13 1007.45 1007.77 1003.37 999.17 996.85 997.01 996.97 996.57 996.45 996.17 996.29 998.25 998.05 998.09 998.13 998.21 998.37 998.73 999.53 999.65 999.81 1000.13 1000.53 1001.01 1001.37 1001.65 1001.85 1002.05 1002.41 1003.05 1003.53 1003.85 1003.97 1004.37 1005.05 1005.49 1005.73 1006.25 1006.77 1007.29 1007.65 1008.09 1008.37 1008.73 1009.13
1003.13 1000.01 997.13 995.81 996.05 996.89 997.77 998.57 1000.21 998.97 1000.01 1001.25 1003.69 1007.01 1004.89 1002.93 1003.09 1002.41 1003.81 1005.37 1002.65 996.69 995.77 995.85 995.85 995.49 995.45 995.13 995.41 997.17 997.53 997.45 997.37 997.45 997.65 998.05 998.29 998.85 999.33 999.69 1000.05 1000.41 1000.77 1001.17 1001.57 1002.01 1002.37 1002.65 1002.97 1003.25 1003.65 1004.09 1004.45 1004.77 1005.25 1005.77 1006.37 1006.77 1006.89 1007.29 1007.65 1008.17 1008.73
1001.05 998.77 997.21 996.65 995.73 996.45 998.17 998.25 997.97 999.01 1000.45 1000.05 1001.05 1002.09 1002.45 1003.69 1003.53 1004.61 1004.77 1005.97 1002.13 996.45 995.61 995.33 994.53 994.53 994.45 994.33 994.77 996.13 996.93 996.85 996.89 997.09 997.49 997.89 998.45 998.45 998.41 998.81 999.41 999.93 1000.41 1000.85 1001.45 1002.05 1002.41 1002.77 1003.09 1003.25 1003.37 1003.57 1003.93 1004.41 1004.85 1005.33 1005.93 1006.21 1006.61 1006.93 1007.33 1007.85 1008.33
1002.09 1000.65 998.77 998.49 996.89 996.45 997.85 998.53 998.01 997.81 997.89 998.61 999.45 999.57 1000.81 1003.09 1002.93 1003.17 1004.89 1007.41 1002.65 996.69 994.25 995.37 995.53 995.01 994.69 994.61 994.57 994.97 996.41 996.49 996.45 996.81 997.09 997.33 997.65 998.21 998.81 999.25 999.61 1000.09 1000.73 1001.29 1001.49 1001.61 1001.93 1002.21 1002.37 1002.69 1002.97 1003.25 1003.73 1004.17 1004.53 1005.05 1005.41 1005.73 1006.21 1006.53 1007.09 1007.49 1007.93
1005.77 1005.49 1005.21 1003.25 1001.65 999.13 997.37 996.77 997.37 997.49 998.13 999.13 1000.37 1002.57 1002.57 1003.97 1002.45 1002.53 1004.01 1003.69 999.77 996.61 994.93 994.61 994.61 994.65 994.45 993.89 994.49 994.61 994.65 995.57 996.09 996.37 996.61 997.05 997.69 998.33 998.57 999.01 999.61 1000.21 1000.33 1000.53 1001.01 1001.37 1001.61 1001.81 1002.05 1002.37 1002.61 1002.97 1003.33 1003.73 1004.09 1004.37 1005.01 1005.49 1005.81 1006.13 1006.61 1007.13 1007.57
1007.53 1005.09 1003.65 1001.65 1001.85 1001.33 999.05 997.57 997.05 997.73 997.57 997.73 998.73 999.93 1002.37 1003.33 1001.93 1002.85 1001.69 1000.93 999.89 997.93 996.33 995.17 995.65 994.53 994.49 995.17 995.25 995.37 995.45 995.17 995.17 995.81 996.41 996.81 997.41 997.93 998.33 998.69 999.01 999.37 1000.17 1000.65 1000.73 1000.89 1001.09 1001.33 1001.57 1001.89 1002.25 1002.65 1002.97 1003.33 1003.77 1003.93 1004.25 1004.81 1005.21 1005.69 1006.13 1006.69 1007.13
1006.33 1004.61 1003.77 1001.61 1001.33 1001.69 999.49 997.37 997.61 997.21 997.77 998.13 999.09 1000.77 1001.69 1000.29 1001.29 1003.65 1000.61 1000.05 1000.65 998.65 996.45 995.33 995.73 995.09 994.73 994.57 994.57 995.17 995.01 995.05 995.33 995.77 996.21 996.49 997.17 997.65 997.93 998.49 999.09 999.61 999.81 1000.13 1000.53 1000.73 1000.93 1001.17 1001.29 1001.61 1001.81 1002.05 1002.41 1002.77 1003.21 1003.45 1003.77 1004.25 1004.65 1005.17 1005.65 1006.09 1006.57
1005.21 1003.85 1003.13 1001.85 1000.29 999.53 998.57 996.53 996.41 997.37 997.29 998.01 999.33 999.49 999.13 999.45 1000.69 1001.85 999.41 999.93 1000.45 998.29 996.09 995.85 995.49 995.89 994.93 993.89 993.77 994.25 994.01 994.33 994.77 995.49 996.29 996.81 997.21 997.49 997.89 998.17 998.45 998.85 999.57 999.97 1000.25 1000.49 1000.65 1000.85 1001.29 1001.49 1001.73 1001.93 1002.09 1002.37 1002.65 1002.97 1003.25 1003.61 1003.93 1004.65 1005.17 1005.61 1006.09
1005.25 1003.33 1001.93 1000.13 999.85 999.01 997.65 996.29 995.81 996.09 996.81 997.65 998.01 998.53 999.05 998.57 998.49 998.13 997.65 998.89 998.97 997.17 996.45 996.01 995.33 994.81 995.13 994.89 994.13 994.33 994.73 994.73 995.01 995.61 996.13 996.53 996.89 997.33 997.61 997.77 997.97 998.29 998.65 999.21 999.65 1000.01 1000.45 1000.69 1000.97 1001.25 1001.53 1001.69 1001.81 1002.09 1002.37 1002.53 1002.81 1003.01 1003.45 1004.09 1004.65 1005.13 1005.57
1005.37 1002.77 1001.49 1000.29 999.53 998.69 998.65 996.57 995.73 995.69 996.01 996.77 997.33 997.69 998.09 999.05 998.37 998.33 999.49 999.57 999.13 997.61 996.73 996.65 995.37 995.01 995.17 994.81 994.89 994.89 994.53 994.57 995.01 995.61 996.05 996.25 996.61 996.85 997.13 997.49 997.81 998.13 998.53 998.93 999.45 999.89 1000.13 1000.33 1000.53 1000.77 1000.97 1001.13 1001.33 1001.65 1001.85 1002.09 1002.41 1002.53 1002.97 1003.77 1004.29 1004.69 1005.13
1005.97 1002.77 1002.93 1001.17 999.45 998.45 998.61 999.93 998.93 997.21 996.81 997.77 997.65 998.61 997.57 998.53 999.49 999.45 999.09 999.77 1000.29 998.17 996.97 996.45 996.37 996.21 996.41 996.57 995.93 995.29 995.21 994.81 994.81 995.37 995.73 995.97 996.25 996.57 996.93 997.25 997.61 998.09 998.49 999.05 999.37 999.57 999.69 999.81 1000.09 1000.37 1000.73 1000.89 1001.17 1001.37 1001.33 1001.61 1001.77 1002.01 1002.61 1003.21 1003.81 1004.21 1004.41
1006.77 1003.57 1003.81 1002.13 1001.05 999.13 1001.37 1003.05 1002.85 1000.73 998.53 998.61 1000.09 1001.61 1001.61 1002.09 1000.05 999.53 1000.25 1000.09 998.13 997.53 996.93 997.57 998.09 997.53 997.65 997.41 997.25 996.41 995.57 995.25 995.17 995.29 995.45 995.77 995.93 996.17 996.45 997.01 997.45 997.73 998.09 998.37 998.65 998.89 999.13 999.33 999.69 999.73 999.89 1000.49 1000.81 1000.73 1000.97 1001.01 1001.25 1001.77 1002.29 1002.77 1003.29 1003.69 1003.89
1007.45 1005.29 1004.69 1003.97 1002.69 1004.73 1006.41 1003.53 1002.45 1000.89 1001.89 1001.01 1002.25 1004.09 1003.33 1002.45 1001.85 1001.17 999.01 997.81 997.69 997.77 997.85 998.29 999.09 998.33 998.85 998.17 997.45 996.69 996.61 996.49 996.69 996.69 996.73 996.77 996.85 996.93 997.09 997.25 997.57 997.93 998.13 998.49 998.69 998.77 998.81 998.81 998.81 998.93 999.25 999.65 999.85 999.97 1000.25 1000.53 1001.05 1001.45 1001.93 1002.37 1002.73 1003.21 1003.45
1008.25 1006.17 1005.65 1004.61 1004.89 1005.77 1003.01 1001.97 1002.21 1001.69 1000.85 1001.13 1002.01 1002.53 1002.69 1002.81 1001.53 1000.57 1000.49 999.05 998.69 999.13 998.05 998.01 998.13 998.05 998.05 997.17 997.37 997.25 997.05 996.89 997.13 997.53 997.57 997.61 997.57 997.81 997.73 997.93 998.09 998.17 998.33 998.53 998.77 999.01 999.13 999.17 999.21 999.37 999.61 999.57 999.73 1000.01 1000.09 1000.57 1000.77 1001.25 1001.53 1001.89 1002.29 1002.69 1003.09
1007.61 1007.13 1007.25 1006.09 1006.01 1002.37 1002.81 1002.21 1001.81 1001.41 1000.93 1001.53 1001.09 1002.33 1003.17 1003.25 1003.17 1002.89 1002.45 1000.45 999.77 999.53 999.01 998.09 997.77 997.33 997.53 996.97 997.81 998.01 997.81 997.57 997.61 997.69 998.17 997.97 997.89 998.45 998.57 998.57 998.69 998.57 998.53 998.61 998.73 998.97 998.73 998.81 999.13 999.21 999.45 999.33 999.65 999.93 999.77 1000.21 1000.57 1000.85 1001.17 1001.57 1001.85 1002.17 1002.57
1008.53 1007.93 1008.57 1007.73 1004.29 1003.13 1003.33 1003.77 1003.77 1004.61 1005.45 1004.73 1004.73 1005.93 1005.61 1004.09 1003.77 1003.45 1003.53 1001.73 1000.45 1000.45 999.85 998.93 998.09 996.89 996.69 998.45 1000.09 999.01 998.81 998.45 998.01 997.97 998.13 998.01 998.33 998.41 998.61 998.53 998.89 998.77 998.69 998.89 999.13 999.17 999.37 999.45 999.53 999.57 999.17 999.13 999.41 999.61 999.89 1000.01 1000.29 1000.61 1000.93 1001.33 1001.53 1001.73 1002.09
1007.69 1008.81 1008.17 1007.09 1005.81 1006.01 1005.85 1006.49 1004.97 1004.21 1003.85 1003.53 1003.33 1003.81 1005.41 1003.97 1003.81 1003.61 1003.73 1002.97 1001.65 1001.41 1000.81 999.81 998.97 996.53 998.17 1002.33 1002.69 1000.93 999.97 999.21 998.97 998.29 998.05 997.97 998.09 998.33 998.65 998.73 998.85 998.93 998.89 998.93 999.05 999.33 999.73 999.89 999.97 999.81 999.57 999.45 999.49 999.85 1000.05 1000.09 1000.37 1000.53 1000.77 1001.01 1001.01 1001.25 1001.57
1008.81 1008.93 1008.69 1008.85 1008.41 1008.05 1008.05 1006.77 1005.29 1003.57 1002.73 1002.97 1002.81 1003.09 1006.41 1005.17 1004.81 1004.01 1003.97 1003.61 1002.53 1002.09 1001.73 1000.89 999.17 998.69 1002.49 1004.57 1003.61 1001.85 1000.85 1000.29 999.69 999.37 998.93 998.61 998.53 998.57 998.69 998.97 999.33 999.37 999.37 999.37 999.57 999.73 999.89 1000.33 1000.25 999.97 999.89 999.85 999.93 1000.37 1000.37 1000.33 1000.37 1000.73 1000.89 1000.73 1000.69 1000.85 1000.97
1008.97 1008.37 1008.57 1009.45 1010.37 1010.21 1008.05 1006.77 1005.25 1003.45 1002.25 1001.69 1002.57 1005.25 1008.41 1006.65 1005.53 1004.45 1004.09 1004.05 1003.65 1003.01 1002.13 1001.25 1000.93 1002.09 1003.85 1004.77 1003.77 1001.97 1001.29 1000.85 1000.49 1000.21 1000.09 999.73 999.45 999.37 999.13 999.05 999.09 999.25 999.25 999.33 999.77 1000.09 1000.37 1000.57 1000.17 1000.09 1000.01 1000.13 1000.33 1000.49 1000.53 1000.49 1000.57 1000.65 1000.53 1000.41 1000.21 1000.01 1000.05
1008.65 1008.17 1007.89 1008.41 1010.13 1008.61 1007.77 1006.85 1005.21 1003.45 1001.73 1001.77 1005.49 1008.89 1008.73 1006.97 1006.33 1005.09 1004.37 1004.17 1003.89 1003.61 1003.13 1002.05 1003.17 1003.61 1003.09 1003.05 1002.41 1001.73 1001.37 1001.17 1001.05 1000.57 1000.25 1000.13 999.85 999.93 999.77 999.69 999.37 999.49 999.61 999.89 1000.29 1000.45 1000.49 1000.33 1000.25 1000.17 1000.17 1000.33 1000.61 1000.65 1000.61 1000.61 1000.53 1000.37 1000.09 999.89 999.73 999.77 999.93
1009.37 1008.13 1007.81 1008.41 1009.85 1009.57 1008.45 1006.77 1005.37 1002.85 1002.81 1007.45 1009.57 1008.41 1007.33 1007.53 1007.21 1005.73 1004.89 1004.53 1004.17 1003.85 1003.85 1003.61 1003.49 1003.41 1002.77 1002.49 1002.09 1001.97 1001.93 1002.01 1001.81 1001.45 1001.09 1000.65 1000.21 999.81 999.77 999.73 999.77 1000.01 1000.13 1000.33 1000.33 1000.41 1000.29 1000.13 1000.13 1000.25 1000.45 1000.77 1000.93 1000.81 1000.73 1000.81 1000.61 1000.09 999.81 999.65 999.53 999.49 999.57
1009.05 1008.65 1009.17 1009.77 1011.13 1009.01 1008.49 1007.13 1005.09 1004.37 1006.25 1008.81 1008.13 1007.77 1007.53 1007.49 1007.37 1006.41 1005.41 1004.89 1004.73 1004.29 1004.45 1004.05 1004.05 1003.89 1003.69 1003.41 1003.05 1002.69 1002.41 1002.17 1002.17 1002.01 1001.81 1001.65 1001.45 1001.09 1000.65 1000.49 1000.21 1000.25 1000.57 1000.73 1000.81 1000.81 1000.65 1000.53 1000.53 1000.49 1000.53 1000.81 1000.89 1000.89 1001.01 1000.77 1000.17 999.85 999.65 999.45 999.33 999.29 999.37
1011.09 1010.73 1011.01 1011.65 1009.69 1010.09 1009.13 1008.33 1009.53 1008.65 1007.97 1007.69 1007.53 1007.65 1008.17 1007.93 1007.77 1006.97 1006.21 1005.61 1005.17 1005.01 1004.97 1004.85 1004.61 1004.41 1004.33 1004.01 1003.73 1003.45 1003.05 1002.65 1002.21 1001.85 1001.65 1001.53 1001.49 1001.41 1001.17 1001.01 1000.89 1000.73 1000.97 1001.01 1001.05 1000.85 1000.77 1000.69 1000.69 1000.73 1000.93 1001.13 1001.05 1001.01 1000.93 1000.29 999.97 999.69 999.45 999.29 999.13 999.13 999.29
1010.77 1011.13 1010.17 1009.01 1008.57 1008.97 1008.97 1008.57 1008.61 1008.25 1007.33 1006.97 1007.17 1007.25 1007.69 1008.17 1008.05 1006.97 1006.85 1006.61 1005.81 1005.49 1005.45 1005.25 1005.09 1004.97 1004.73 1004.69 1004.25 1004.09 1003.89 1003.49 1003.17 1002.73 1002.33 1001.97 1001.65 1001.33 1001.17 1001.09 1000.85 1000.85 1001.25 1001.49 1001.37 1001.21 1001.05 1000.97 1000.85 1000.89 1000.97 1001.33 1001.21 1001.17 1000.61 1000.13 1000.01 999.81 999.61 999.41 999.25 999.13 999.17
1009.45 1009.17 1008.93 1009.17 1009.01 1008.85 1008.77 1008.57 1008.85 1008.73 1008.09 1007.05 1006.81 1007.13 1007.41 1007.81 1007.77 1007.33 1007.37 1007.17 1006.65 1006.01 1005.57 1005.69 1005.49 1005.41 1005.25 1004.93 1004.61 1004.13 1003.73 1003.45 1003.09 1002.81 1002.49 1002.17 1001.85 1001.65 1001.41 1001.17 1000.93 1000.85 1000.89 1001.05 1001.25 1001.49 1001.41 1001.25 1001.29 1001.17 1001.09 1001.25 1001.53 1001.13 1000.49 1000.17 999.93 999.77 999.65 999.61 999.49 999.37 999.17
1010.41 1011.21 1009.77 1010.41 1010.33 1009.33 1008.81 1008.81 1009.05 1009.01 1008.85 1007.97 1007.29 1007.25 1007.29 1007.57 1007.57 1007.41 1007.49 1007.33 1007.13 1006.73 1006.05 1005.89 1005.89 1005.61 1005.25 1005.01 1004.65 1004.17 1003.73 1003.45 1003.21 1002.97 1002.85 1002.65 1002.41 1002.29 1002.21 1001.85 1001.53 1001.37 1001.33 1001.61 1001.77 1001.81 1001.89 1001.53 1001.49 1001.41 1001.33 1001.17 1001.13 1000.93 1000.65 1000.17 999.97 999.77 999.69 999.69 999.73 999.53 999.41
1011.09 1010.81 1010.77 1010.65 1010.13 1009.49 1009.01 1009.01 1009.61 1009.49 1009.37 1008.85 1008.29 1007.65 1007.17 1007.13 1007.25 1007.33 1007.17 1007.37 1007.49 1007.17 1006.89 1006.49 1006.17 1005.77 1005.45 1005.29 1004.97 1004.53 1004.13 1003.77 1003.49 1003.37 1003.21 1003.05 1002.73 1002.37 1002.13 1001.93 1001.81 1001.69 1001.65 1001.89 1002.05 1002.09 1002.17 1002.01 1001.85 1001.65 1001.49 1001.29 1001.05 1000.81 1000.61 1000.21 999.89 999.77 999.81 999.77 999.81 999.77 999.57
1011.57 1010.29 1010.17 1010.65 1009.97 1008.97 1008.73 1008.93 1009.13 1009.37 1009.41 1009.37 1008.85 1008.49 1007.81 1007.09 1007.13 1007.21 1007.05 1006.81 1007.17 1007.41 1007.33 1006.73 1006.69 1006.41 1006.01 1005.69 1005.41 1005.13 1004.85 1004.53 1004.17 1003.97 1003.89 1003.69 1003.49 1003.25 1002.89 1002.49 1002.25 1002.33 1002.09 1002.05 1002.09 1002.21 1002.45 1002.21 1002.01 1001.85 1001.69 1001.45 1001.09 1000.89 1000.69 1000.41 1000.01 1000.01 1000.05 999.93 999.81 999.77 999.65
1013.37 1012.45 1011.93 1011.97 1012.93 1011.65 1009.93 1009.25 1009.25 1009.41 1009.37 1009.25 1009.01 1008.89 1008.61 1007.65 1007.17 1007.13 1007.21 1007.09 1006.81 1006.61 1006.57 1006.73 1006.89 1006.73 1006.37 1005.89 1005.61 1005.33 1005.17 1004.97 1004.69 1004.33 1004.13 1004.09 1003.93 1003.53 1003.13 1002.81 1002.61 1002.41 1002.21 1002.05 1002.29 1002.53 1002.57 1002.29 1002.17 1002.17 1001.97 1001.73 1001.37 1001.01 1000.73 1000.61 1000.33 1000.17 1000.25 1000.09 1000.09 1000.01 999.89
1014.13 1012.53 1012.77 1012.49 1012.57 1012.25 1011.25 1010.29 1009.29 1009.49 1009.65 1009.37 1009.21 1008.97 1008.81 1008.37 1007.45 1007.01 1007.05 1007.17 1006.85 1006.61 1006.41 1006.25 1006.33 1006.29 1006.17 1006.01 1005.81 1005.61 1005.37 1005.09 1004.77 1004.53 1004.25 1004.17 1003.93 1003.65 1003.25 1003.17 1003.05 1002.85 1002.73 1002.29 1002.33 1002.61 1002.73 1002.49 1002.45 1002.37 1002.25 1001.97 1001.65 1001.21 1000.93 1000.73 1000.65 1000.49 1000.29 1000.33 1000.41 1000.41 1000.21
1013.49 1012.77 1012.61 1012.81 1013.05 1012.73 1011.05 1010.57 1010.33 1009.69 1009.49 1009.49 1009.01 1008.65 1008.25 1008.25 1008.01 1007.29 1007.17 1007.05 1006.93 1006.69 1006.41 1006.21 1006.09 1006.09 1006.01 1005.85 1005.77 1005.73 1005.45 1005.05 1004.81 1004.49 1004.09 1003.85 1003.81 1003.57 1003.29 1003.33 1003.45 1003.25 1003.13 1002.89 1002.69 1002.85 1002.77 1002.77 1002.77 1002.61 1002.45 1002.13 1001.89 1001.53 1001.25 1001.05 1000.81 1000.77 1000.73 1000.77 1000.93 1000.89 1000.69
1013.89 1012.65 1012.69 1012.53 1012.37 1011.73 1011.09 1010.65 1010.17 1009.73 1009.41 1009.33 1008.97 1008.33 1007.85 1007.49 1007.37 1007.17 1007.01 1006.93 1006.61 1006.41 1006.25 1006.17 1005.93 1005.85 1005.93 1005.69 1005.53 1005.37 1005.25 1004.89 1004.49 1004.29 1004.05 1003.85 1003.77 1003.73 1003.57 1003.45 1003.53 1003.45 1003.25 1003.05 1002.81 1002.73 1002.73 1002.85 1002.97 1002.89 1002.65 1002.37 1002.05 1001.77 1001.57 1001.41 1001.17 1001.21 1001.21 1001.21 1001.21 1001.05 1000.85
Wind_Speed
11 15 13 11 12 11 10 10 14 11 7 7 3 3 2 4 2 10 2 2 3 5 4 6 5 2 8 9 10 16 19 19 20 20 20 21 20 20 20 20 19 20 19 19 19 19 18 18 18 19 20 20 21 20 19 19 18 16 17 17 17 17 16
19 14 10 15 13 6 7 13 10 5 4 3 6 5 1 4 5 5 2 12 1 5 8 4 8 6 6 8 11 17 18 18 20 19 20 21 21 21 22 22 22 22 21 22 21 19 20 20 21 21 22 20 19 19 20 20 18 19 18 17 16 15 15
13 16 12 10 16 12 14 12 9 10 8 12 3 3 5 4 5 2 3 5 6 8 7 2 9 10 12 9 9 15 17 19 21 21 23 21 21 20 19 19 17 17 18 20 20 21 21 21 22 22 20 18 17 17 18 20 20 21 20 17 17 15 15
9 11 13 15 13 17 9 9 12 9 4 6 6 7 4 6 2 4 6 1 8 5 5 9 12 13 16 12 10 17 20 21 20 20 21 21 21 20 19 19 19 19 21 22 22 22 22 22 19 17 18 16 18 18 18 19 19 18 17 17 16 16 16
5 12 9 16 15 15 10 12 10 10 4 2 5 1 5 5 4 5 4 5 5 8 10 13 14 15 14 15 12 16 20 22 22 22 21 19 20 21 20 19 19 19 19 20 20 20 21 19 17 16 17 19 19 17 18 19 20 19 18 18 17 16 14
8 7 10 15 15 12 9 10 12 13 11 6 13 8 1 4 3 3 5 8 7 12 9 14 17 15 15 15 15 16 20 24 23 22 23 21 19 20 20 20 19 19 19 19 19 17 14 14 16 18 18 17 18 19 18 18 18 18 19 18 17 16 15
9 14 8 10 14 11 9 11 9 13 9 6 8 9 9 6 5 4 4 1 9 9 7 12 15 15 17 17 15 12 19 22 23 22 22 21 22 21 20 20 19 19 19 19 19 19 18 19 19 19 18 17 18 20 19 17 18 19 19 19 17 16 15
13 16 15 8 13 14 12 7 7 11 14 12 10 8 5 7 2 6 2 2 9 9 5 10 12 15 16 15 15 14 19 19 22 21 21 21 19 21 21 19 18 17 17 17 16 17 16 15 16 18 18 17 17 17 17 17 19 20 18 16 16 16 15
5 8 6 6 6 12 10 11 10 13 14 12 4 6 3 7 9 7 6 7 11 8 4 4 9 14 14 14 12 15 20 19 21 20 20 20 21 19 17 17 16 15 15 16 16 17 17 17 17 18 18 17 16 16 16 17 17 17 16 15 15 16 16
7 7 7 5 3 12 10 10 14 14 16 15 7 8 3 7 5 6 4 6 12 10 9 10 6 10 13 14 10 13 21 21 20 20 20 20 18 17 18 18 16 17 18 17 16 16 15 16 17 17 17 16 16 15 17 16 16 16 17 15 16 16 16
8 7 6 11 9 10 12 15 18 14 12 15 11 6 6 9 4 8 7 11 9 9 7 7 6 6 11 7 8 11 16 20 21 18 19 18 17 18 20 19 18 16 14 16 18 18 17 17 17 16 16 16 16 15 16 17 16 16 16 16 16 16 16
14 16 17 19 14 13 15 16 16 13 13 12 14 10 9 6 8 8 6 7 6 9 8 6 4 1 5 7 9 11 15 18 19 20 19 19 18 17 17 16 16 17 17 17 17 17 17 16 16 15 15 16 17 17 17 17 16 16 15 16 17 17 17
20 18 17 16 12 9 11 16 17 17 15 12 16 12 6 9 7 9 8 5 6 7 10 5 5 2 4 11 12 14 18 18 18 19 21 20 20 20 20 20 19 19 17 16 17 17 17 16 16 16 15 15 15 14 15 16 16 17 16 16 17 17 16
22 16 12 9 7 9 12 8 17 17 16 15 13 9 5 11 6 9 10 7 9 6 5 2 2 3 2 0 2 5 10 17 18 19 20 21 20 19 20 19 19 18 19 18 18 18 16 17 17 16 15 15 16 16 16 16 16 16 16 17 17 17 17
13 8 9 10 9 7 9 3 14 17 18 15 11 8 7 3 3 1 4 5 1 3 1 0 4 5 2 5 6 6 11 16 18 18 19 20 19 18 17 16 15 14 15 15 15 16 17 17 17 17 16 16 15 15 15 15 16 15 15 15 15 16 16
9 10 15 14 13 5 8 16 11 1 10 16 10 3 2 3 3 6 8 4 2 1 1 7 8 10 10 7 6 6 5 10 16 19 18 18 18 18 17 15 14 14 14 14 16 17 17 17 17 16 15 15 15 16 15 15 15 15 15 15 16 16 16
6 11 15 14 15 5 15 15 16 12 10 16 13 14 17 13 2 9 6 5 6 4 3 16 10 14 12 13 9 6 8 5 7 13 16 15 15 16 16 15 15 15 15 15 16 16 15 16 15 16 16 15 16 16 15 14 13 14 15 15 15 16 15
10 14 16 15 6 9 4 1 12 13 14 17 21 12 14 17 11 2 3 5 2 3 9 18 12 18 11 10 10 9 7 12 14 13 11 10 9 8 7 6 6 5 5 5 7 10 12 13 16 15 14 16 15 14 14 13 14 14 14 14 15 15 15
8 11 10 2 2 4 0 1 12 15 10 15 19 21 20 18 21 20 15 11 10 4 12 17 16 16 13 18 20 19 15 13 14 15 14 14 13 12 11 10 8 6 7 7 6 5 4 5 5 6 8 9 9 10 11 12 12 12 13 13 13 14 15
6 3 5 3 5 4 5 1 11 21 10 15 13 19 21 20 18 16 12 10 7 4 9 14 12 18 17 22 20 18 16 14 13 16 13 14 15 14 10 12 9 9 8 9 9 6 4 6 3 4 5 6 9 10 11 12 12 12 13 13 13 13 14
2 4 5 4 8 5 10 12 17 16 10 13 8 11 12 17 17 16 13 10 11 6 6 7 9 15 21 22 16 17 16 14 13 13 14 14 14 13 12 13 11 9 9 11 8 8 9 8 7 5 2 5 9 10 12 12 12 12 13 13 13 12 14
5 7 7 4 2 3 7 11 15 13 11 11 12 1 11 17 18 16 13 12 12 12 11 10 7 14 25 16 11 12 14 13 14 13 13 14 15 14 13 12 12 11 9 10 10 10 10 11 8 5 5 5 4 4 5 6 8 11 12 13 13 12 13
8 5 1 2 1 2 6 18 20 22 16 12 8 3 12 13 17 16 14 13 13 13 11 11 4 17 17 10 7 8 10 12 12 13 13 13 13 13 12 12 12 11 10 10 10 10 11 11 7 6 7 6 7 5 3 2 5 7 9 11 11 12 12
5 2 2 0 1 2 14 19 20 22 19 12 5 8 5 11 15 15 14 15 15 12 11 10 18 13 14 9 6 6 9 9 11 12 13 13 14 13 12 11 9 9 9 12 13 12 11 8 5 7 6 6 6 4 4 2 1 5 7 8 8 10 12
6 5 2 2 2 4 13 18 22 22 17 3 11 8 3 8 12 13 13 15 13 12 12 12 15 10 9 6 5 8 10 13 13 12 12 11 11 12 13 12 10 10 10 10 10 9 7 7 6 6 6 7 6 4 3 3 3 3 3 4 7 8 7
5 4 1 2 4 1 15 18 18 16 3 10 9 3 3 6 10 10 12 15 14 12 14 12 11 9 10 9 10 12 12 11 10 11 11 12 13 11 11 13 12 10 9 9 9 10 9 10 9 7 5 6 4 4 3 4 4 4 4 4 4 6 9
3 4 4 5 5 7 17 20 10 21 9 4 3 1 6 5 8 9 11 12 14 13 12 13 13 13 13 12 10 10 10 11 11 11 11 11 11 11 11 12 11 11 10 9 9 8 7 8 8 8 8 7 5 4 5 5 5 4 4 5 3 6 7
3 4 6 4 2 3 7 11 7 8 4 3 2 0 5 6 8 9 9 11 12 12 12 12 12 12 12 13 12 10 10 10 11 11 11 10 10 9 8 8 8 9 9 8 8 7 8 8 7 7 7 7 6 6 5 5 6 5 5 6 3 4 6
1 2 4 4 2 4 1 2 2 6 8 7 8 7 6 6 6 8 10 11 12 12 11 11 11 11 12 10 10 10 10 10 9 10 10 10 11 11 11 11 7 8 8 8 7 7 7 8 7 7 6 7 6 7 7 5 6 6 6 6 4 3 5
4 3 2 11 11 7 3 4 8 8 11 9 5 7 6 8 5 7 10 10 11 12 12 11 10 10 9 10 10 10 10 11 11 10 10 11 11 12 12 13 11 8 9 9 8 7 8 8 8 7 7 5 6 7 7 5 5 6 5 6 6 3 4
6 1 10 12 10 10 9 10 12 10 9 10 11 7 5 7 7 6 8 8 10 10 10 10 8 9 10 10 10 10 10 12 12 13 12 11 10 10 11 10 9 7 7 8 8 7 8 7 7 7 7 7 5 6 7 6 5 5 6 5 5 3 4
4 5 7 11 14 5 3 8 8 11 12 13 14 12 6 4 3 3 4 5 6 7 8 7 8 9 9 11 10 10 10 11 11 11 11 12 13 12 10 10 10 6 6 6 6 6 7 7 7 7 7 7 7 6 6 4 4 4 4 4 5 4 2
7 7 8 18 18 11 5 9 7 7 9 10 10 13 11 7 6 5 6 5 3 1 2 3 5 6 9 8 8 9 8 9 10 10 9 10 9 9 11 11 10 8 4 5 5 6 7 6 7 7 8 8 7 6 5 5 4 4 4 4 4 4 1
5 2 8 12 8 9 14 18 14 11 12 11 11 7 12 11 6 6 7 5 4 6 3 2 2 4 5 7 7 9 7 7 7 8 10 7 7 8 7 8 9 9 5 5 6 7 5 6 7 7 8 8 8 7 6 7 5 4 3 3 4 4 4
11 11 9 4 5 12 14 16 18 15 12 12 11 10 6 10 9 7 8 10 6 5 5 3 3 4 4 5 5 6 7 7 6 5 7 9 9 9 8 8 9 8 7 4 7 6 5 5 6 6 6 7 7 8 8 7 5 4 3 3 4 4 4
14 11 9 6 8 12 16 15 16 17 12 10 13 11 9 6 7 7 5 8 9 5 3 3 3 3 4 4 4 5 6 6 6 5 7 8 6 6 6 7 6 5 6 4 5 5 4 5 5 5 5 6 6 7 7 7 6 6 6 5 5 4 4
14 15 13 13 12 15 15 15 16 16 14 11 11 12 9 4 3 6 4 4 7 5 4 4 5 4 4 5 4 5 5 7 6 4 6 7 8 7 6 7 7 3 2 2 3 4 4 4 4 5 5 5 5 7 6 7 7 8 7 6 5 4 4
Wind_Direction
228 205 192 205 168 199 189 187 209 210 140 170 221 325 238 109 129 245 171 306 298 297 333 267 269 199 216 211 162 174 180 184 178 180 184 186 185 184 186 187 190 188 186 186 185 185 184 183 180 183 183 182 183 182 184 187 188 187 191 189 188 190 191
217 225 206 202 198 149 149 204 205 129 139 125 180 203 274 171 174 250 255 238 270 159 251 258 233 239 238 204 173 177 177 175 178 183 186 186 186 186 186 188 188 185 185 186 186 186 185 184 184 186 186 185 182 181 182 183 184 187 190 189 190 191 191
208 206 215 232 215 186 194 200 138 174 164 212 197 134 218 187 202 251 279 247 244 184 238 232 223 228 233 213 184 176 179 176 180 184 186 186 184 185 189 189 185 185 186 188 187 186 187 188 189 186 182 179 180 183 183 182 185 188 188 189 190 190 190
193 198 190 215 213 209 201 132 177 172 140 201 159 199 154 136 229 184 287 189 245 220 207 203 221 214 227 220 168 178 178 179 182 185 188 188 184 183 187 187 187 187 187 188 188 187 186 189 187 181 177 179 183 185 182 186 188 187 187 190 190 191 192
237 213 189 209 207 193 184 177 183 186 205 172 137 226 178 163 174 190 184 240 271 248 227 228 224 218 217 221 188 180 176 181 182 184 187 186 185 187 186 185 187 187 187 188 190 190 190 185 180 177 177 182 185 183 187 188 186 186 188 192 191 194 190
296 261 203 211 206 206 187 180 188 184 170 134 188 240 191 175 120 198 172 239 257 250 225 223 223 220 218 217 210 168 180 179 183 187 184 182 185 187 186 185 184 186 186 187 189 189 185 178 180 183 184 184 182 185 188 188 187 188 190 191 193 193 192
258 264 266 209 204 202 198 168 197 185 178 144 170 197 216 192 224 170 151 181 266 238 216 214 225 221 213 214 209 166 179 179 183 186 184 183 182 183 185 183 183 184 183 184 184 183 182 182 183 184 183 185 186 188 186 186 187 191 191 192 192 191 193
257 263 265 278 212 195 201 192 166 182 192 187 186 180 185 186 205 224 286 260 259 276 213 208 223 224 214 207 198 170 175 179 185 183 181 180 184 186 186 180 181 181 182 181 181 182 181 180 181 185 187 189 189 187 186 185 190 191 191 192 191 191 194
283 279 309 256 238 204 203 196 189 191 194 183 156 140 128 184 209 176 151 222 261 273 280 283 228 225 212 201 193 166 170 180 183 180 181 183 182 183 180 175 177 176 175 180 184 183 182 183 184 186 188 189 186 186 185 187 190 188 190 189 190 193 194
198 201 225 235 224 215 199 207 188 189 190 180 146 185 173 190 234 176 185 238 255 277 300 321 269 191 190 190 169 169 167 178 181 179 180 180 177 178 176 175 173 174 181 183 180 183 184 185 185 186 189 189 187 186 188 185 186 186 189 188 191 192 195
264 253 271 281 308 299 224 196 199 185 184 185 182 128 131 193 209 196 223 219 259 302 299 310 317 179 167 139 128 152 167 173 176 175 177 178 176 175 176 176 178 177 175 177 181 182 183 184 186 186 187 187 187 188 186 187 187 187 187 188 190 192 195
275 280 276 277 286 282 270 207 194 182 178 184 190 177 206 168 122 224 247 220 218 257 276 288 306 77 110 136 149 160 167 169 169 173 177 178 173 173 176 177 174 177 179 179 179 181 182 185 185 185 186 186 187 188 188 187 186 187 187 188 190 191 193
300 282 268 275 275 260 270 210 182 190 187 179 193 201 184 146 175 204 241 181 190 239 250 255 258 227 199 165 170 170 172 169 167 169 174 177 176 175 177 180 179 180 176 176 179 181 183 181 180 182 185 188 190 190 187 187 188 190 185 188 191 192 193
293 286 278 263 276 289 331 209 180 188 194 192 184 194 189 182 182 204 218 196 207 231 276 239 254 72 345 283 107 112 151 167 166 168 173 177 178 178 181 182 182 181 177 176 178 180 180 182 182 182 185 188 189 188 188 188 191 189 185 189 190 192 195
292 325 349 327 313 321 359 263 185 188 194 198 181 180 193 212 257 111 116 144 159 303 300 314 62 52 55 75 83 137 165 162 163 166 171 175 178 178 181 182 182 175 176 176 175 177 181 183 183 184 188 189 190 189 189 189 189 189 186 188 190 194 197
301 344 354 327 316 314 65 23 6 45 169 199 183 165 196 161 198 136 126 104 77 255 101 76 50 54 48 55 79 86 131 167 162 166 172 176 175 175 177 176 173 177 175 170 175 180 182 183 183 186 188 189 189 194 192 191 189 186 186 188 191 194 198
283 321 333 321 316 342 33 9 342 336 65 75 61 36 27 16 238 140 133 188 193 187 122 77 49 62 53 47 17 61 71 87 145 160 166 171 174 174 171 169 174 179 178 178 179 179 179 179 180 186 184 185 193 194 193 192 187 188 188 189 191 196 197
295 316 320 311 333 66 110 353 346 14 45 68 71 42 27 14 7 267 284 134 40 24 91 87 80 70 49 61 52 42 60 88 84 77 77 84 90 90 94 117 137 138 139 145 167 179 180 184 185 182 181 187 190 190 192 190 190 190 190 192 191 194 196
299 316 322 275 97 132 227 120 28 6 24 49 72 55 36 15 13 20 6 20 62 74 94 99 95 91 79 62 50 46 39 58 79 81 77 79 81 79 87 87 90 103 116 116 112 120 152 178 183 179 192 196 188 190 191 191 191 191 194 195 192 192 194
289 340 357 141 211 209 12 63 19 7 14 15 14 47 26 19 13 13 4 18 21 55 85 95 94 91 84 65 47 40 41 42 59 73 74 77 79 79 78 86 78 79 88 101 102 95 88 92 111 163 188 189 184 195 192 193 194 195 196 198 197 192 194
324 327 270 230 295 299 7 7 0 355 347 328 9 69 33 14 11 12 356 3 30 0 4 73 98 95 73 63 39 25 29 35 43 60 72 74 77 81 74 74 76 74 76 78 82 85 74 71 64 51 79 167 192 195 195 198 196 197 197 201 201 194 194
14 334 333 354 8 359 325 340 310 315 300 290 276 357 56 9 5 5 357 7 27 18 349 334 294 75 72 53 37 15 22 27 38 45 58 66 69 71 75 72 69 65 67 71 64 64 68 60 48 36 38 59 94 140 191 204 199 203 200 204 203 196 196
319 319 7 320 8 91 346 323 320 313 317 290 265 141 49 360 350 360 357 11 22 25 9 353 340 73 77 70 41 9 21 27 29 43 45 56 61 62 62 66 68 62 60 66 69 62 56 50 33 36 38 45 56 47 60 137 183 208 216 212 205 203 198
260 297 339 250 19 6 328 323 318 313 312 303 211 87 59 343 328 352 358 15 21 13 15 29 51 50 82 73 42 14 30 36 35 41 45 48 51 52 49 48 59 66 59 56 52 50 48 41 36 38 37 43 41 28 359 3 131 192 211 220 219 213 199
279 317 312 60 350 317 336 325 310 311 303 345 66 74 48 315 325 351 5 18 22 20 26 35 67 44 57 61 53 40 34 37 31 33 40 44 49 55 50 45 37 45 51 59 59 51 46 41 35 33 33 36 24 2 351 357 331 286 257 233 217 210 207
312 251 255 185 148 17 336 324 310 316 11 50 79 76 2 339 326 338 7 22 17 19 36 39 52 52 46 46 42 40 37 39 34 32 35 39 39 41 50 48 44 43 46 47 52 43 32 28 19 23 35 41 26 2 18 10 318 297 301 282 234 209 192
322 355 19 38 360 336 343 325 356 9 56 46 38 286 33 4 331 347 12 17 20 17 30 36 42 39 32 26 26 35 31 33 31 28 31 36 39 36 38 43 40 43 39 35 40 43 32 31 21 15 15 21 23 26 17 335 310 312 308 302 252 209 203
330 357 27 60 198 252 320 10 36 320 51 204 257 74 54 27 349 1 8 14 20 20 25 27 32 35 33 28 21 22 22 23 23 23 23 28 35 41 44 56 56 52 49 38 33 31 27 22 19 16 23 9 4 4 343 317 318 323 333 325 287 204 204
74 346 5 321 224 166 181 46 71 331 353 49 43 36 52 51 3 12 29 3 7 19 19 25 25 28 26 26 18 25 18 20 17 20 18 20 21 22 24 24 35 56 58 60 50 33 21 15 7 6 13 12 356 353 326 328 331 329 331 335 310 212 201
311 216 76 14 5 3 167 56 52 39 348 337 35 44 40 47 32 34 31 10 358 7 12 19 17 23 15 18 13 14 13 18 17 17 18 17 19 19 19 14 11 30 35 39 41 31 14 11 2 360 349 1 348 318 313 320 328 328 338 344 330 264 204
354 348 39 13 356 345 36 37 39 34 16 346 352 13 30 64 27 38 58 24 5 357 0 10 6 5 7 12 11 9 9 14 14 14 13 9 13 18 15 10 9 15 38 31 22 21 13 356 356 345 338 335 326 317 319 312 325 331 336 345 336 311 216
346 334 32 358 346 318 55 37 29 5 358 1 355 348 360 35 63 30 88 100 31 352 359 352 360 358 0 10 4 7 7 6 8 10 10 7 4 1 6 5 8 5 36 37 20 20 7 348 345 343 338 331 324 329 321 335 345 340 336 332 332 314 233
309 311 17 1 341 335 322 356 3 5 359 348 344 339 327 360 3 9 8 42 61 102 326 359 1 5 355 359 358 1 4 3 2 2 7 4 1 358 1 355 3 1 6 34 27 24 9 357 5 2 8 355 346 341 334 337 5 12 349 337 343 347 336
339 352 342 360 348 314 318 315 323 337 339 331 330 339 332 325 350 355 359 344 9 332 351 22 25 30 357 348 354 352 349 355 355 354 354 356 355 357 356 356 358 359 2 42 37 36 15 11 16 11 15 2 350 345 352 346 351 30 346 8 14 355 352
296 309 317 318 302 286 278 290 303 310 316 315 313 316 313 308 314 337 352 340 333 341 329 342 27 9 4 339 344 346 341 334 336 337 350 352 353 352 356 359 351 357 358 40 64 49 21 8 19 9 10 2 354 357 1 351 351 5 19 48 43 15 15
278 281 298 299 287 277 284 287 289 292 295 297 297 298 294 264 295 314 341 328 318 316 313 327 342 342 341 325 347 332 323 323 338 339 344 344 349 344 356 357 340 344 352 16 67 63 38 17 5 4 15 12 3 1 4 354 6 24 20 47 51 32 29
294 300 295 289 278 270 269 273 276 276 277 275 275 279 284 289 287 281 281 293 305 311 323 327 322 325 337 326 339 330 327 322 324 339 354 341 344 349 348 349 332 327 327 331 48 73 61 45 15 353 16 7 5 12 10 7 20 33 31 25 34 44 50